Regional Weather Roundup
Issued by NWS Mobile, AL

Home | Current Version | Previous Version | Text Only | Print | Product List | Glossary On
Versions: 1 2 3 4 5 6 7 8 9 10 11 12 13 14 15 16 17 18 19 20 21 22 23 24 25 26 27
000
ASUS44 KMOB 031113
RWRMOB
REGIONAL WEATHER ROUNDUP
NATIONAL WEATHER SERVICE MOBILE AL
600 AM CDT TUE AUG 03 2021

NOTE: "FAIR" INDICATES FEW OR NO CLOUDS BELOW 12,000 FEET WITH NO
      SIGNIFICANT WEATHER AND/OR OBSTRUCTIONS TO VISIBILITY.

  * THESE STATIONS ARE PART OF THE UNIVERSITY OF SOUTH ALABAMA
    MESONET AND ARE NOT UNDER NWS OR FAA QUALITY CONTROL.

ALZ061>064-031200-
COASTAL ALABAMA

CITY           SKY/WX    TMP DP  RH WIND       PRES   REMARKS
MOBILE REG APT CLOUDY    73  72  96 N5        29.95R
BROOKLEY FIELD CLOUDY    76  74  93 N7        29.95R
USA CAMPUS*    NOT AVBL
DOG RIVER*     NOT AVBL


CITY           SKY/WX    TMP DP  RH WIND       PRES   REMARKS
GULF SHORES    MOCLDY    74  73  97 CALM      29.94R

$$

ALZ051>060-031200-
INTERIOR SOUTHWEST AND SOUTH CENTRAL ALABAMA

CITY           SKY/WX    TMP DP  RH WIND       PRES   REMARKS
GREENVILLE     LGT RAIN  71  66  84 N3        29.95S
EVERGREEN      CLOUDY    74  71  91 VRB3      29.96R
ATMORE*          N/A    N/A N/A N/A CALM      29.97R
ANDALUSIA/OPP  NOT AVBL
ANDALUSIA*       N/A    N/A N/A N/A N3        29.97R
FLORALA APT    NOT AVBL
FLORALA*       NOT AVBL

$$

FLZ001>006-031200-
WESTERN FLORIDA PANHANDLE

CITY           SKY/WX    TMP DP  RH WIND       PRES   REMARKS
PENSACOLA      LGT RAIN  75  74  96 N6        29.93R
NAS PENSACOLA  NOT AVBL
MILTON         NOT AVBL
WHTNG S FIELD  NOT AVBL


CITY           SKY/WX    TMP DP  RH WIND       PRES   REMARKS
JAY*           NOT AVBL
DUKE FIELD     CLOUDY    73  71  96 N5        29.93S
CRESTVIEW      CLOUDY    74  72  93 CALM      29.95S
VALPARAISO     MOCLDY    73  71  95 N6        29.92R
DESTIN         NOT AVBL

$$

MSZ076-079-031200-
INTERIOR SOUTHEAST MISSISSIPPI

CITY           SKY/WX    TMP DP  RH WIND       PRES   REMARKS
LEAKESVILLE*   NOT AVBL
AGRICOLA*      NOT AVBL

$$

MARINE OBSERVATIONS

STATION/POSITION TIME  TEMP    WIND        PRES    WAVE
                       AIR SEA DIR/SP/G            HT/PER
                 (UTC) (F)     (DEG/KT/KT) (MB)    (FT/S)
PETIT BOIS ISLND 1024   81     270/  2/  2 1013.9
E DAUPHIN ISLAND 1000   81     280/  2/  2 1012.9S
USCG MOBILE BAY  1024   75 87  350/  5/  7 1012.8
STATE DOCKS      1024   75 86              1013.7
WEEKS BAY        0945   74                 1013.0F
FORT MORGAN      1024   81     240/  1/  1 1013.0
12 S ORANGE BCH  1050   82 87  350/  6/  8   N/A     1/ 9
PENSACOLA BAY    1024   76 88   10/  3/  6 1013.2
64 S DAUPHIN ISL 1050   76 85   70/  2/  4 1014.2F   3/ 5

$$

SELECTED LOCATIONS ACROSS THE REGION

CITY           SKY/WX    TMP DP  RH WIND       PRES   REMARKS
NEW ORLEANS    MOCLDY    78  75  90 CALM      29.93F
GULFPORT       LGT RAIN  75  74  96 N5        29.93R
PASCAGOULA AP  CLOUDY    75  74  96 CALM      29.94R
PASCAGOULA*    NOT AVBL
HATTIESBURG    CLOUDY    75  71  87 CALM      29.96S
LAUREL         CLOUDY    73  73 100 CALM      29.97S
MERIDIAN       CLOUDY    70  68  93 N5        29.97R
JACKSON        MOCLDY    73  71  93 NE3       29.97S
MONTGOMERY     PTCLDY    71  68  90 CALM      29.96S
TROY           CLOUDY    72  66  81 CALM      29.96S
ASHFORD*         N/A    N/A N/A N/A N3        29.97R
DOTHAN         CLOUDY    73  72  96 N7        29.97S
PANAMA CITY    MOCLDY    74  74 100 NW5       29.91R FOG

$$




USA.gov is the U.S. government's official web portal to all federal, state and local government web resources and services.